This is the latest recevied weather packets stored in our database for station/object DR0T. If no packets are shown the sender has not sent any weather packets the latest 10 day(s).
| Time | Temp. | Humidity | Pressure | Rain* | Wind** | Luminosity | Snow |
|---|---|---|---|---|---|---|---|
| 1778221344 | 8.89° C | 92% | 1018.1 hPa | 0 mm | - | - | - |
| 1778221037 | 8.89° C | 95% | 1018 hPa | 0 mm | - | - | - |
| 1778220736 | 8.33° C | 99% | 1017.9 hPa | 0 mm | - | - | - |
| 1778220455 | 8.33° C | 99% | 1017.9 hPa | 0 mm | - | - | - |
| 1778220153 | 8.33° C | 99% | 1017.9 hPa | 0 mm | - | - | - |
| 1778219852 | 7.78° C | 99% | 1017.8 hPa | 0 mm | - | - | - |
| 1778219550 | 7.22° C | 99% | 1017.7 hPa | 0 mm | - | - | - |
| 1778219251 | 7.22° C | 99% | 1017.7 hPa | 0 mm | - | - | - |
| 1778218950 | 6.67° C | 99% | 1017.8 hPa | 0 mm | - | - | - |
| 1778218647 | 6.67° C | 99% | 1017.7 hPa | 0 mm | - | - | - |
| 1778218348 | 6.67° C | 99% | 1017.7 hPa | 0 mm | - | - | - |
| 1778218049 | 6.67° C | 99% | 1017.6 hPa | 0 mm | - | - | - |
| 1778217744 | 6.11° C | 99% | 1017.6 hPa | 0 mm | - | - | - |
| 1778217442 | 6.11° C | 99% | 1017.6 hPa | 0 mm | - | - | - |
| 1778217145 | 6.11° C | 99% | 1017.5 hPa | 0 mm | - | - | - |
| 1778216844 | 6.11° C | 99% | 1017.5 hPa | 0 mm | - | - | - |
| 1778216538 | 5.56° C | 99% | 1017.4 hPa | 0 mm | - | - | - |
| 1778216237 | 5.56° C | 99% | 1017.5 hPa | 0 mm | - | - | - |
| 1778215936 | 5.56° C | 99% | 1017.5 hPa | 0 mm | - | - | - |
| 1778215656 | 5° C | 99% | 1017.3 hPa | 0 mm | - | - | - |
| 1778215353 | 4.44° C | 99% | 1017.3 hPa | 0 mm | - | - | - |
| 1778215052 | 3.89° C | 99% | 1017.3 hPa | 0 mm | - | - | - |
| 1778214751 | 3.89° C | 99% | 1017.3 hPa | 0 mm | - | - | - |
| 1778214449 | 4.44° C | 99% | 1017.3 hPa | 0 mm | - | - | - |
| 1778214149 | 3.89° C | 99% | 1017.2 hPa | 0 mm | - | - | - |
* Rain latest hour (hover to see other rain measurements)
** Current wind speed in m/s (hover to see current wind gust speed)